STARLINK-2460 (48120 NORAD) Tracking and Keplerian Element Data

This shows tracking and keplerian element data for the satellite.

Feedback or suggestion? Click here.




ElementValue
Catalog48120
NameSTARLINK-2460
Epoch Orbit195
Epoch Day173.91668981
Epoch Year2021
RAAN336.4556
Inclination53.052
Eccentricity0.0001392
Argument of Perigee96.7876
Mean Anonmoly5.0985
Mean Motion15.0637749
Decay Rate0.00027035
L11 48120U 21027AE 21173.91668981 .00027035 00000-0 18280-2 0 9997
L22 48120 53.0520 336.4556 0001392 96.7876 5.0985 15.06377490 1956

Live tracking and technical data element details for STARLINK-2460 (NORAD 48120). STARLINK-2460 can be tracked NOW for your location showing map with azimuth and elevation plus other details from your city location.

Track the satellite on the map from your city or location and see movement details for azimuth, elevation, latitude, longitude, range, height, and movement on the map or in text.







IsCatalogInMostPopularTable: catalog: 48120, numindb: 34
Update: records affected: 1



GetName: 48120 STARLINK-2460

Hit Count: updated at: Thu, 24 Jun 2021 03:12:00 GMT